{"data":{"norad_id":81111,"epoch":"2026-09-17T02:19:42.217824Z","epoch_age_seconds":308304,"freshness":"STALE","line1":"1 81111U          26260.09701641  .00017493  00000+0  30680-2 0  9998","line2":"2 81111  62.8602 115.0194 3824089   8.6562 356.4542  7.64470728293097","mean_motion":7.64470728,"eccentricity":0.3824089,"inclination_deg":62.8602,"raan_deg":115.0194,"arg_perigee_deg":8.6562,"mean_anomaly_deg":356.4542,"bstar":0.003068,"rev_number":29309,"period_min":188.36561653149,"perigee_km":344.33439659484,"apogee_km":8669.3665806833,"semimajor_km":10884.987488639,"source":"CELESTRAK","updated_at":"2026-09-20T09:00:32.383270Z"}}